User: anonymous   Login
Location: Fort Wayne
(41.1310°N, 85.1290°W)
Time: 10:29:59
(UTC-05:00)
Language:

OPAL - Orbit

View from above orbital plane
View from above orbital plane
View from above satellite
View from above satellite

Ground track
Ground track

The orbit data is extracted from the following two-line orbital elements,

1 26063U 00004C   18050.38240984 -.00000014  00000-0  15455-4 0  9993
2 26063 100.2061 104.8296 0036085 332.8781  27.0514 14.36689730946873
Epoch (UTC): 19 February 2018 09:10:40
Eccentricity: 0.0036085
inclination: 100.2061°
perigee height: 743 km
apogee height: 795 km
right ascension of ascending node: 104.8296°
argument of perigee: 332.8781°
revolutions per day: 14.36689730
mean anomaly at epoch: 27.0514°
orbit number at epoch: 94687

The dashed part of the orbit path shows where the satellite is in the earth's shadow,  

DLR